This is the latest recevied weather packets stored in our database for station/object WD9GET. If no packets are shown the sender has not sent any weather packets the latest 1 day(s).
| Time | Temp. | Humidity | Pressure | Rain* | Wind** | Luminosity | Snow |
|---|---|---|---|---|---|---|---|
| 1778082296 | 25.56° C | 97% | 1009.9 hPa | 0 mm | - | 120 W/m² | - |
| 1778082043 | 25.56° C | 98% | 1009.9 hPa | 0 mm | - | 92 W/m² | - |
| 1778081785 | 25.56° C | 98% | 1009.9 hPa | 0 mm | - | 169 W/m² | - |
| 1778081725 | 25.56° C | 98% | 1009.9 hPa | 0 mm | - | 161 W/m² | - |
| 1778081665 | 25.56° C | 98% | 1009.9 hPa | 0 mm | - | 132 W/m² | - |
| 1778081485 | 25.56° C | 98% | 1009.8 hPa | 0 mm | - | 148 W/m² | - |
| 1778081366 | 25.56° C | 98% | 1009.9 hPa | 0 mm | - | 68 W/m² | - |
| 1778081306 | 25.56° C | 98% | 1009.9 hPa | 0 mm | - | 76 W/m² | - |
| 1778081185 | 25.56° C | 98% | 1009.8 hPa | 0 mm | - | 111 W/m² | - |
| 1778080587 | 25° C | 98% | 1009.7 hPa | 0 mm | - | 144 W/m² | - |
| 1778080377 | 25° C | 99% | 1009.6 hPa | 0 mm | - | 118 W/m² | - |
| 1778080197 | 25° C | 99% | 1009.6 hPa | 0 mm | - | 65 W/m² | - |
| 1778080077 | 25° C | 99% | 1009.6 hPa | 0 mm | - | 37 W/m² | - |
| 1778079432 | 25° C | 99% | 1009.4 hPa | 0 mm | - | 90 W/m² | - |
| 1778078791 | 25° C | 99% | 1009.2 hPa | 0 mm | - | 89 W/m² | - |
| 1778078008 | 25° C | 99% | 1009.1 hPa | 0 mm | - | 114 W/m² | - |
| 1778077948 | 25° C | 99% | 1009.2 hPa | 0 mm | - | 111 W/m² | - |
| 1778077888 | 25° C | 99% | 1009.2 hPa | 0 mm | - | 91 W/m² | - |
| 1778077828 | 25° C | 99% | 1009.2 hPa | 0 mm | - | 75 W/m² | - |
| 1778077768 | 25° C | 99% | 1009.2 hPa | 0 mm | - | 87 W/m² | - |
| 1778077708 | 25° C | 99% | 1009.3 hPa | 0 mm | - | 81 W/m² | - |
| 1778077343 | 25° C | 99% | 1009.3 hPa | 0 mm | - | 63 W/m² | - |
| 1778077338 | 24.44° C | 99% | 1009.3 hPa | 0 mm | - | 53 W/m² | - |
| 1778076348 | 24.44° C | 99% | 1009.4 hPa | 0 mm | - | 60 W/m² | - |
| 1778075953 | 24.44° C | 99% | 1009.5 hPa | 0 mm | - | 39 W/m² | - |
* Rain latest hour (hover to see other rain measurements)
** Current wind speed in m/s (hover to see current wind gust speed)